Location: Fazenda Monte Alegre
(4.8500°S, 38.0333°W)
Time: 17:32:37
(UTC+00:00)

H-2A R/B - Pass Details

Date: 24 September 2020
Orbit: 734 x 836 km, 98.2° (Epoch: 24 October)

Event Time Altitude Azimuth Distance (km) Brightness Sun altitude
Exits shadow 22:43:55 16° 323° (NW) 1,836 4.2 -34.8°
Drops below altitude 10° 22:45:01 10° 329° (NNW) 2,241 4.7 -35.0°
Sets 22:47:23 0° 335° (NNW) 3,169 5.4 -35.6°
